Location: Poprad
(49.0500°N, 20.3000°E)
Time: 19:15:25
(UTC+02:00)

RS-44 - Pass Details

Date: 24 April 2024
Orbit: 1174 x 1511 km, 82.5° (Epoch: 20 May)

Event Time Altitude Azimuth Distance (km) Brightness Sun altitude
Rises 23:04:45 0° 263° (W) 4,586 ? -24.5°
Reaches altitude 10° 23:10:12 10° 290° (WNW) 3,549 ? -24.8°
Maximum altitude 23:13:29 12° 314° (NW) 3,311 ? -25.0°
Drops below altitude 10° 23:16:43 10° 337° (NNW) 3,460 ? -25.2°
Sets 23:21:54 0° 6° (N) 4,353 ? -25.5°
